Bellmunt





Hora UTC 02:20
Temperatura 19.8 ºC
Humitat 30.0 %
Pressió 1003.3 hPa
Pluja 0.0 mm
Velocitat vent 0.0 km/h
Direcció vent WNW

Dades diàries 2022-05-23



Hora UTC (hivern +1h; estiu +2h)
Temperatura (ºC) Humitat (%) Pressió (hPa) Velocitat vent (km/h) Precipitació (mm)
Hora UTC Aire Humitat Pressió Vel. Dir. Vel. Max Dir. Intent. màx 5 min.
00:05 21.1 21.0 1004.7 0.0 WSW 0.0 0.0
00:10 21.1 21.0 1004.3 0.0 WSW 6.4 0.0
00:15 21.1 22.0 1004.4 0.0 SW 6.4 0.0
00:20 21.1 21.0 1004.5 0.0 W 11.3 0.0
00:25 21.0 21.0 1004.6 1.6 SW 11.3 0.0
00:30 20.8 22.0 1004.5 0.0 WSW 6.4 0.0
00:35 20.6 23.0 1004.5 0.0 W 6.4 0.0
00:40 20.4 23.0 1004.5 0.0 W 3.2 0.0
00:45 20.3 23.0 1004.1 0.0 S 0.0 0.0
00:50 20.3 23.0 1004.0 0.0 WSW 0.0 0.0
00:55 20.3 25.0 1003.9 0.0 W 4.8 0.0
01:00 20.5 26.0 1003.8 0.0 W 4.8 0.0
01:05 20.5 25.0 1003.9 0.0 S 3.2 0.0
01:10 20.3 24.0 1004.0 0.0 S 3.2 0.0
01:15 20.0 24.0 1003.9 0.0 W 0.0 0.0
01:20 20.1 28.0 1003.8 0.0 W 1.6 0.0
01:25 20.1 28.0 1003.6 3.2 W 9.7 0.0
01:30 19.9 25.0 1003.5 0.0 WNW 11.3 0.0
01:35 19.6 25.0 1003.6 0.0 WNW 11.3 0.0
01:40 19.7 26.0 1003.8 0.0 W 12.9 0.0
01:45 19.8 26.0 1003.9 0.0 W 12.9 0.0
01:50 19.9 26.0 1003.9 0.0 SW 6.4 0.0
01:55 19.7 26.0 1003.9 0.0 SW 0.0 0.0
02:00 19.5 26.0 1003.9 0.0 WSW 1.6 0.0
02:05 19.5 25.0 1003.7 0.0 W 1.6 0.0
02:10 19.6 25.0 1003.6 0.0 W 3.2 0.0
02:15 19.7 24.0 1003.4 0.0 W 4.8 0.0
02:20 19.8 30.0 1003.3 0.0 WNW 4.8 0.0
Màxima 21.6 30.0 1004.7 3.2 W 12.9 0.0
Mínima 19.4 21.0 1003.3
Total 0.0